Location: Martin Dies, Jr. State Park
(30.8429°N, 94.1720°W)
Time: 13:05:05
(UTC-06:00)

ISS - Pass Details

Date: 23 November 2019
Orbit: 411 x 421 km, 51.6° (Epoch: 08 December)

Event Time Altitude Azimuth Distance (km) Brightness Sun altitude
Rises 18:20:00 0° 261° (W) 2,343 2.0 -13.8°
Reaches altitude 10° 18:22:40 10° 284° (WNW) 1,486 0.0 -14.3°
Maximum altitude 18:24:49 16° 325° (NW) 1,179 -1.3 -14.8°
Drops below altitude 10° 18:26:59 10° 5° (N) 1,494 -1.2 -15.2°
Enters shadow 18:27:15 - 8° (N) 1,563 -1.1 -15.3°
